Hourly Weather Roundup
Issued by NWS Central Illinois

Home | Current Version | Previous Version | Text Only | Print | Product List | Glossary On
Versions: 1 2 3 4 5 6 7 8 9 10 11 12 13 14 15 16 17 18 19 20 21 22 23 24 25 26 27 28 29 30 31 32 33 34 35 36 37 38 39 40 41 42 43 44 45 46 47 48 49 50
000
NZUS43 KILX 271910
HWRILX

AREA WEATHER ROUNDUP
NATIONAL WEATHER SERVICE, LINCOLN IL
100 PM CST SAT DEC 27 2014


CITY           SKY/WX    TMP DP  RH WIND       PRES   REMARKS
BLOOMINGTON    CLOUDY    38  34  85 W14       30.06F WCI  30
CHAMPAIGN      CLOUDY    45  42  89 W20       30.06F
DECATUR        CLOUDY    42  37  82 W14G21    30.09S WCI  35
FLORA          PTSUNNY   49  48  96 W5        30.10F FOG
GALESBURG      CLOUDY    34  29  80 W15G24    30.12R WCI  25
JACKSONVILLE   LGT RAIN  39  34  81 W13G22    30.15R WCI  32
LACON          CLOUDY    37  29  71 W15G23    30.07R WCI  28
LAWRENCEVILLE  CLOUDY    49  48  97 S6        30.10F FOG
LITCHFIELD     CLOUDY    40  35  81 W10       30.13S WCI  34
$$


CITY           SKY/WX    TMP DP  RH WIND       PRES   REMARKS
LINCOLN        CLOUDY    41  34  76 W7G17     30.09F
MACOMB         CLOUDY    37  31  79 W15G24    30.15R WCI  28
MATTOON        CLOUDY    48  47  96 SW8       30.06F FOG
MT CARMEL AP   DRIZZLE   52  46  82 CALM      30.10F
OLNEY-NOBLE AP CLOUDY    48  46  93 CALM      30.09F FOG
PARIS          CLOUDY    48  48 100 SW9       30.07F
PEORIA         CLOUDY    40  29  64 W17G25    30.12R WCI  31
PONTIAC        CLOUDY    40  35  83 W17       30.05F WCI  31
RANTOUL        CLOUDY    44  41  91 W23       30.06S FOG     WCI  35
ROBINSON       CLOUDY    49  47  95 SW8       30.10F FOG
SPRINGFIELD    CLOUDY    40  32  73 W14       30.13R WCI  32
TAYLORVILLE    CLOUDY    39  36  87 W10G20    30.11S WCI  32
$$

...REGIONAL REPORTS...


CITY           SKY/WX    TMP DP  RH WIND       PRES   REMARKS
CHICAGO O`HARE CLOUDY    38  31  76 W20G30    29.97S WCI  28
KANKAKEE       CLOUDY    39  37  90 W18G25    30.04R WCI  30
MOLINE         CLOUDY    34  25  69 W21G28    30.09R WCI  22
MOUNT VERNON   CLOUDY    48  45  87 W7        30.11F
PITTSFIELD     RAIN      37  34  87 W7        30.16F WCI  32
QUINCY         CLOUDY    37  29  72 W10       30.13F WCI  30
ROCKFORD       CLOUDY    35  28  75 W17G25    29.99F WCI  25
$$


CITY           SKY/WX    TMP DP  RH WIND       PRES   REMARKS
BURLINGTON     CLOUDY    35  28  75 NW13      30.13R WCI  26
CEDAR RAPIDS   CLOUDY    31  26  82 W23G29    30.09R WCI  18
DES MOINES     PTSUNNY   29  21  72 NW15      30.17F WCI  18
KIRKSVILLE     CLOUDY    33  26  75 W10       30.18F WCI  25
OTTUMWA        CLOUDY    31  25  78 W15G23    30.14S WCI  20
ST LOUIS       LGT RAIN  41  35  79 W14G21    30.17R WCI  33
$$


CITY           SKY/WX    TMP DP  RH WIND       PRES   REMARKS
TERRE HAUTE    CLOUDY    48  46  93 SW8       30.09F FOG
EVANSVILLE     LGT RAIN  50  47  89 S7        30.13F FOG
INDIANAPOLIS   CLOUDY    46  44  93 SW9       30.06F
LAFAYETTE      CLOUDY    46  45  96 SW8       30.03F
MADISON        CLOUDY    35  29  78 W8G22     29.93R WCI  29
MILWAUKEE      CLOUDY    38  30  73 W21G30    29.90R WCI  28
$$




USA.gov is the U.S. government's official web portal to all federal, state and local government web resources and services.